QPF
0.00 0.00 0.00 0.00 0.00 0.00 0.00 0.01 0.00 0.00 0.00 0.00 0.00 0.00 0.00 0.00 0.00 0.00 0.00 0.01 0.02 0.02 0.01 0.00 0.00 0.00 0.00 0.00 0.00 0.00 0.00 0.00 0.00 0.00 0.00 0.01 0.01 0.01 0.00 0.00 0.00 0.01 0.01
0.00 0.00 0.00 0.00 0.00 0.00 0.00 0.00 0.00 0.00 0.00 0.00 0.00 0.00 0.00 0.00 0.00 0.00 0.01 0.02 0.03 0.02 0.01 0.00 0.00 0.00 0.00 0.00 0.00 0.00 0.00 0.00 0.00 0.00 0.00 0.00 0.01 0.00 0.00 0.00 0.00 0.01 0.02
0.00 0.00 0.00 0.00 0.00 0.00 0.00 0.00 0.00 0.00 0.00 0.00 0.00 0.00 0.00 0.00 0.00 0.00 0.01 0.02 0.02 0.01 0.01 0.00 0.00 0.00 0.00 0.00 0.00 0.00 0.00 0.00 0.00 0.00 0.00 0.00 0.00 0.00 0.00 0.00 0.00 0.00 0.01
0.00 0.00 0.00 0.00 0.00 0.00 0.00 0.00 0.00 0.00 0.00 0.00 0.00 0.00 0.00 0.00 0.00 0.00 0.01 0.02 0.02 0.01 0.00 0.00 0.00 0.00 0.00 0.00 0.00 0.00 0.00 0.00 0.00 0.00 0.00 0.00 0.00 0.00 0.00 0.00 0.00 0.00 0.00
0.00 0.00 0.00 0.00 0.00 0.00 0.00 0.00 0.00 0.00 0.00 0.00 0.00 0.00 0.00 0.00 0.00 0.00 0.01 0.02 0.01 0.00 0.00 0.00 0.00 0.00 0.00 0.00 0.00 0.00 0.00 0.00 0.00 0.00 0.00 0.00 0.00 0.02 0.01 0.00 0.00 0.00 0.00
0.00 0.00 0.00 0.00 0.00 0.00 0.00 0.00 0.00 0.00 0.00 0.00 0.00 0.00 0.00 0.00 0.00 0.00 0.01 0.02 0.01 0.00 0.00 0.00 0.00 0.00 0.00 0.00 0.00 0.00 0.00 0.00 0.00 0.00 0.00 0.00 0.00 0.03 0.03 0.01 0.00 0.00 0.00
0.00 0.00 0.00 0.00 0.00 0.00 0.00 0.00 0.00 0.00 0.00 0.00 0.00 0.00 0.00 0.00 0.00 0.01 0.01 0.01 0.00 0.00 0.00 0.00 0.00 0.00 0.00 0.00 0.00 0.00 0.00 0.00 0.00 0.00 0.00 0.00 0.00 0.02 0.02 0.01 0.01 0.01 0.01
0.00 0.00 0.00 0.00 0.00 0.00 0.00 0.00 0.00 0.00 0.00 0.00 0.00 0.00 0.01 0.01 0.01 0.01 0.01 0.01 0.00 0.00 0.00 0.00 0.00 0.00 0.00 0.00 0.00 0.00 0.00 0.00 0.00 0.00 0.00 0.00 0.00 0.00 0.00 0.01 0.01 0.01 0.01
0.00 0.00 0.00 0.00 0.00 0.00 0.00 0.00 0.01 0.01 0.00 0.00 0.00 0.01 0.01 0.01 0.01 0.01 0.01 0.01 0.00 0.00 0.00 0.00 0.00 0.00 0.00 0.00 0.00 0.00 0.00 0.00 0.00 0.00 0.00 0.00 0.00 0.00 0.00 0.00 0.00 0.00 0.00
0.00 0.00 0.00 0.00 0.00 0.00 0.00 0.00 0.01 0.01 0.01 0.01 0.01 0.01 0.02 0.02 0.02 0.01 0.01 0.01 0.00 0.00 0.00 0.00 0.00 0.00 0.00 0.00 0.00 0.00 0.00 0.00 0.00 0.00 0.00 0.00 0.00 0.00 0.00 0.00 0.00 0.00 0.00
0.00 0.00 0.00 0.00 0.00 0.00 0.00 0.01 0.01 0.02 0.02 0.02 0.02 0.02 0.02 0.02 0.01 0.01 0.01 0.01 0.01 0.00 0.00 0.00 0.00 0.00 0.00 0.00 0.00 0.00 0.00 0.00 0.00 0.00 0.00 0.00 0.00 0.00 0.00 0.00 0.00 0.00 0.00
0.00 0.00 0.00 0.00 0.00 0.00 0.00 0.01 0.01 0.02 0.02 0.03 0.03 0.03 0.02 0.01 0.01 0.00 0.00 0.00 0.01 0.00 0.00 0.00 0.00 0.00 0.00 0.00 0.00 0.00 0.00 0.00 0.00 0.00 0.00 0.00 0.00 0.00 0.00 0.00 0.00 0.00 0.00
0.00 0.00 0.00 0.00 0.00 0.00 0.00 0.01 0.01 0.02 0.02 0.03 0.03 0.03 0.02 0.02 0.01 0.00 0.00 0.00 0.00 0.00 0.00 0.00 0.00 0.00 0.00 0.00 0.00 0.00 0.00 0.00 0.00 0.00 0.00 0.00 0.00 0.00 0.00 0.00 0.00 0.00 0.00
0.00 0.00 0.00 0.00 0.00 0.00 0.00 0.00 0.01 0.01 0.02 0.03 0.03 0.03 0.03 0.03 0.02 0.01 0.00 0.00 0.00 0.00 0.00 0.00 0.00 0.00 0.00 0.00 0.00 0.00 0.00 0.00 0.00 0.00 0.00 0.00 0.00 0.00 0.00 0.00 0.00 0.00 0.00
0.00 0.00 0.00 0.00 0.00 0.00 0.00 0.00 0.00 0.01 0.02 0.03 0.03 0.03 0.04 0.04 0.03 0.01 0.00 0.00 0.00 0.00 0.00 0.00 0.00 0.00 0.00 0.00 0.00 0.00 0.00 0.00 0.00 0.00 0.00 0.00 0.00 0.00 0.00 0.00 0.00 0.00 0.00
0.00 0.00 0.00 0.00 0.00 0.00 0.00 0.00 0.00 0.01 0.02 0.03 0.04 0.04 0.04 0.04 0.03 0.01 0.01 0.00 0.00 0.00 0.00 0.00 0.00 0.00 0.00 0.00 0.00 0.00 0.00 0.00 0.00 0.00 0.00 0.00 0.00 0.00 0.00 0.00 0.00 0.00 0.00
0.00 0.00 0.00 0.00 0.00 0.00 0.00 0.00 0.00 0.01 0.02 0.04 0.05 0.04 0.03 0.03 0.02 0.01 0.01 0.01 0.01 0.00 0.00 0.00 0.00 0.00 0.00 0.00 0.00 0.00 0.00 0.00 0.00 0.00 0.00 0.00 0.00 0.00 0.00 0.00 0.00 0.00 0.00
0.00 0.00 0.00 0.00 0.00 0.00 0.00 0.00 0.00 0.00 0.01 0.03 0.03 0.04 0.03 0.02 0.02 0.02 0.02 0.02 0.01 0.01 0.01 0.01 0.00 0.00 0.00 0.00 0.00 0.00 0.00 0.00 0.00 0.00 0.00 0.00 0.00 0.00 0.00 0.00 0.00 0.00 0.00
0.00 0.00 0.00 0.00 0.00 0.00 0.00 0.00 0.00 0.00 0.00 0.01 0.01 0.01 0.02 0.02 0.02 0.02 0.03 0.03 0.03 0.02 0.02 0.01 0.01 0.00 0.00 0.00 0.00 0.00 0.00 0.00 0.00 0.00 0.00 0.00 0.00 0.00 0.00 0.00 0.00 0.00 0.00
0.00 0.00 0.00 0.00 0.00 0.00 0.00 0.00 0.00 0.00 0.00 0.00 0.00 0.00 0.00 0.01 0.01 0.02 0.03 0.03 0.04 0.03 0.03 0.02 0.02 0.01 0.00 0.00 0.00 0.00 0.00 0.00 0.00 0.00 0.00 0.00 0.00 0.00 0.00 0.00 0.00 0.00 0.00
0.00 0.00 0.00 0.00 0.00 0.00 0.00 0.00 0.00 0.00 0.00 0.00 0.00 0.00 0.00 0.00 0.00 0.01 0.02 0.02 0.03 0.03 0.02 0.02 0.01 0.01 0.00 0.00 0.00 0.00 0.00 0.00 0.00 0.00 0.00 0.00 0.00 0.00 0.00 0.00 0.00 0.00 0.00
0.00 0.00 0.00 0.00 0.00 0.00 0.00 0.00 0.00 0.00 0.00 0.00 0.00 0.00 0.00 0.00 0.00 0.00 0.00 0.01 0.01 0.01 0.01 0.01 0.01 0.01 0.00 0.00 0.00 0.00 0.00 0.00 0.00 0.00 0.00 0.00 0.00 0.00 0.00 0.00 0.00 0.00 0.00
0.00 0.00 0.00 0.00 0.00 0.00 0.00 0.00 0.00 0.00 0.00 0.00 0.00 0.00 0.00 0.00 0.00 0.00 0.00 0.00 0.00 0.00 0.00 0.00 0.00 0.00 0.00 0.00 0.00 0.00 0.00 0.00 0.00 0.00 0.00 0.00 0.00 0.00 0.00 0.00 0.00 0.00 0.00
0.00 0.00 0.00 0.00 0.00 0.00 0.00 0.00 0.00 0.00 0.00 0.00 0.00 0.00 0.00 0.00 0.00 0.00 0.00 0.00 0.00 0.00 0.00 0.00 0.00 0.00 0.00 0.00 0.00 0.00 0.00 0.00 0.00 0.00 0.00 0.00 0.00 0.00 0.00 0.00 0.00 0.00 0.00
0.00 0.00 0.00 0.00 0.00 0.00 0.00 0.00 0.00 0.00 0.00 0.00 0.00 0.00 0.00 0.00 0.00 0.00 0.00 0.00 0.00 0.00 0.00 0.00 0.00 0.00 0.00 0.00 0.00 0.00 0.00 0.00 0.00 0.00 0.00 0.00 0.00 0.00 0.00 0.00 0.00 0.00 0.00
0.00 0.00 0.00 0.00 0.00 0.00 0.00 0.00 0.00 0.00 0.00 0.00 0.00 0.00 0.00 0.00 0.00 0.00 0.00 0.00 0.00 0.00 0.00 0.00 0.00 0.00 0.00 0.00 0.00 0.00 0.00 0.00 0.00 0.00 0.00 0.00 0.00 0.00 0.00 0.00 0.00 0.00 0.00
MSLP
1017.39 1017.16 1017.05 1017.09 1017.25 1017.50 1017.79 1018.07 1018.30 1018.46 1018.55 1018.60 1018.64 1018.71 1018.83 1019.01 1019.23 1019.46 1019.68 1019.87 1020.00 1020.09 1020.15 1020.19 1020.24 1020.29 1020.35 1020.40 1020.42 1020.40 1020.33 1020.22 1020.10 1019.98 1019.89 1019.85 1019.85 1019.88 1019.92 1019.94 1019.92 1019.86 1019.76
1017.22 1017.00 1016.91 1016.96 1017.14 1017.41 1017.72 1018.02 1018.27 1018.46 1018.58 1018.67 1018.77 1018.89 1019.06 1019.28 1019.54 1019.80 1020.03 1020.22 1020.35 1020.43 1020.49 1020.53 1020.58 1020.63 1020.68 1020.72 1020.72 1020.67 1020.57 1020.45 1020.31 1020.19 1020.12 1020.10 1020.13 1020.19 1020.26 1020.30 1020.29 1020.23 1020.14
1016.96 1016.78 1016.72 1016.81 1017.02 1017.32 1017.66 1018.00 1018.28 1018.50 1018.67 1018.80 1018.93 1019.09 1019.29 1019.53 1019.79 1020.05 1020.27 1020.44 1020.57 1020.65 1020.70 1020.76 1020.82 1020.88 1020.93 1020.97 1020.96 1020.91 1020.81 1020.69 1020.56 1020.45 1020.40 1020.40 1020.45 1020.53 1020.61 1020.66 1020.66 1020.61 1020.51
1016.69 1016.56 1016.55 1016.69 1016.96 1017.30 1017.69 1018.06 1018.37 1018.62 1018.81 1018.97 1019.12 1019.29 1019.49 1019.72 1019.96 1020.20 1020.39 1020.55 1020.66 1020.75 1020.82 1020.89 1020.97 1021.06 1021.14 1021.19 1021.19 1021.15 1021.06 1020.95 1020.84 1020.75 1020.72 1020.73 1020.79 1020.88 1020.96 1021.01 1021.01 1020.96 1020.87
1016.48 1016.41 1016.47 1016.67 1016.99 1017.38 1017.80 1018.19 1018.52 1018.79 1018.99 1019.15 1019.30 1019.47 1019.65 1019.86 1020.06 1020.26 1020.44 1020.58 1020.69 1020.78 1020.88 1020.99 1021.10 1021.23 1021.34 1021.41 1021.44 1021.42 1021.35 1021.25 1021.16 1021.08 1021.06 1021.07 1021.13 1021.20 1021.27 1021.32 1021.32 1021.28 1021.20
1016.38 1016.39 1016.51 1016.77 1017.13 1017.54 1017.97 1018.37 1018.70 1018.96 1019.15 1019.31 1019.45 1019.60 1019.76 1019.94 1020.12 1020.29 1020.45 1020.58 1020.71 1020.83 1020.97 1021.12 1021.28 1021.44 1021.58 1021.68 1021.73 1021.72 1021.66 1021.58 1021.49 1021.43 1021.40 1021.41 1021.44 1021.50 1021.54 1021.57 1021.57 1021.54 1021.49
1016.48 1016.53 1016.70 1016.98 1017.35 1017.76 1018.17 1018.54 1018.84 1019.08 1019.26 1019.40 1019.54 1019.68 1019.83 1020.00 1020.16 1020.33 1020.49 1020.63 1020.79 1020.95 1021.13 1021.33 1021.53 1021.73 1021.89 1022.01 1022.06 1022.06 1022.00 1021.92 1021.84 1021.77 1021.72 1021.71 1021.72 1021.74 1021.76 1021.77 1021.77 1021.76 1021.74
1016.78 1016.85 1017.02 1017.29 1017.62 1017.98 1018.33 1018.64 1018.90 1019.10 1019.27 1019.41 1019.55 1019.70 1019.87 1020.05 1020.23 1020.41 1020.58 1020.76 1020.95 1021.16 1021.38 1021.62 1021.86 1022.08 1022.26 1022.38 1022.42 1022.41 1022.35 1022.26 1022.17 1022.09 1022.03 1021.99 1021.97 1021.95 1021.94 1021.93 1021.92 1021.93 1021.94
1017.29 1017.32 1017.45 1017.64 1017.89 1018.16 1018.42 1018.65 1018.85 1019.01 1019.17 1019.33 1019.50 1019.69 1019.90 1020.11 1020.32 1020.54 1020.74 1020.96 1021.19 1021.44 1021.70 1021.98 1022.24 1022.47 1022.65 1022.76 1022.79 1022.77 1022.70 1022.60 1022.50 1022.40 1022.32 1022.25 1022.20 1022.14 1022.10 1022.06 1022.04 1022.05 1022.09
1017.95 1017.91 1017.93 1018.02 1018.14 1018.28 1018.42 1018.56 1018.69 1018.82 1018.98 1019.17 1019.39 1019.64 1019.90 1020.17 1020.43 1020.68 1020.93 1021.18 1021.44 1021.72 1022.02 1022.32 1022.61 1022.84 1023.01 1023.11 1023.14 1023.10 1023.02 1022.92 1022.81 1022.71 1022.62 1022.52 1022.43 1022.34 1022.25 1022.17 1022.13 1022.14 1022.19
1018.71 1018.55 1018.44 1018.38 1018.35 1018.34 1018.35 1018.39 1018.46 1018.57 1018.74 1018.98 1019.26 1019.57 1019.89 1020.21 1020.51 1020.80 1021.07 1021.34 1021.63 1021.94 1022.27 1022.59 1022.89 1023.13 1023.31 1023.41 1023.43 1023.39 1023.32 1023.23 1023.13 1023.03 1022.93 1022.81 1022.69 1022.55 1022.41 1022.29 1022.21 1022.18 1022.23
1019.48 1019.18 1018.93 1018.71 1018.52 1018.37 1018.25 1018.19 1018.21 1018.31 1018.51 1018.78 1019.12 1019.49 1019.86 1020.21 1020.54 1020.83 1021.12 1021.41 1021.71 1022.04 1022.39 1022.73 1023.05 1023.32 1023.51 1023.62 1023.66 1023.65 1023.59 1023.52 1023.44 1023.35 1023.25 1023.13 1022.97 1022.79 1022.60 1022.42 1022.27 1022.20 1022.22
1020.19 1019.77 1019.37 1019.00 1018.66 1018.38 1018.17 1018.04 1018.02 1018.12 1018.34 1018.65 1019.02 1019.42 1019.81 1020.17 1020.50 1020.78 1021.06 1021.34 1021.65 1021.99 1022.36 1022.74 1023.09 1023.39 1023.61 1023.76 1023.83 1023.85 1023.83 1023.79 1023.74 1023.68 1023.58 1023.45 1023.27 1023.05 1022.80 1022.55 1022.34 1022.21 1022.16
1020.81 1020.26 1019.74 1019.25 1018.81 1018.44 1018.15 1017.98 1017.95 1018.05 1018.28 1018.62 1019.00 1019.41 1019.78 1020.12 1020.40 1020.66 1020.90 1021.17 1021.48 1021.83 1022.23 1022.64 1023.03 1023.37 1023.64 1023.83 1023.95 1024.00 1024.02 1024.02 1024.01 1023.97 1023.89 1023.76 1023.56 1023.31 1023.01 1022.70 1022.42 1022.21 1022.10
1021.30 1020.67 1020.06 1019.50 1018.99 1018.56 1018.25 1018.07 1018.05 1018.17 1018.41 1018.75 1019.12 1019.49 1019.82 1020.10 1020.33 1020.52 1020.72 1020.96 1021.26 1021.63 1022.05 1022.50 1022.93 1023.32 1023.63 1023.86 1024.01 1024.10 1024.16 1024.19 1024.20 1024.18 1024.13 1024.01 1023.81 1023.54 1023.21 1022.86 1022.53 1022.25 1022.07
1021.70 1021.02 1020.36 1019.75 1019.22 1018.80 1018.50 1018.36 1018.36 1018.51 1018.77 1019.09 1019.43 1019.75 1020.01 1020.21 1020.35 1020.48 1020.63 1020.83 1021.12 1021.49 1021.93 1022.40 1022.86 1023.28 1023.61 1023.86 1024.04 1024.14 1024.22 1024.26 1024.29 1024.29 1024.26 1024.15 1023.98 1023.72 1023.39 1023.03 1022.66 1022.34 1022.11
1022.05 1021.34 1020.67 1020.06 1019.56 1019.18 1018.94 1018.85 1018.91 1019.09 1019.36 1019.68 1019.98 1020.23 1020.40 1020.51 1020.57 1020.62 1020.72 1020.88 1021.15 1021.51 1021.95 1022.42 1022.89 1023.30 1023.63 1023.87 1024.03 1024.13 1024.19 1024.23 1024.26 1024.28 1024.26 1024.19 1024.05 1023.83 1023.54 1023.20 1022.84 1022.50 1022.24
1022.42 1021.70 1021.04 1020.47 1020.02 1019.71 1019.55 1019.55 1019.68 1019.91 1020.21 1020.50 1020.76 1020.95 1021.05 1021.07 1021.05 1021.03 1021.07 1021.19 1021.42 1021.75 1022.16 1022.61 1023.04 1023.42 1023.71 1023.91 1024.02 1024.08 1024.10 1024.12 1024.14 1024.15 1024.16 1024.13 1024.04 1023.88 1023.65 1023.36 1023.04 1022.72 1022.45
1022.86 1022.16 1021.52 1021.00 1020.63 1020.41 1020.35 1020.44 1020.65 1020.94 1021.26 1021.55 1021.78 1021.91 1021.94 1021.90 1021.81 1021.73 1021.71 1021.78 1021.97 1022.25 1022.60 1022.99 1023.35 1023.66 1023.87 1023.99 1024.04 1024.03 1024.00 1023.97 1023.96 1023.97 1023.99 1023.99 1023.96 1023.87 1023.71 1023.50 1023.24 1022.97 1022.71
1023.42 1022.74 1022.14 1021.68 1021.38 1021.26 1021.30 1021.48 1021.77 1022.11 1022.46 1022.76 1022.97 1023.06 1023.05 1022.96 1022.82 1022.70 1022.62 1022.64 1022.76 1022.98 1023.25 1023.54 1023.81 1024.02 1024.14 1024.17 1024.13 1024.04 1023.95 1023.87 1023.82 1023.81 1023.82 1023.85 1023.86 1023.82 1023.74 1023.60 1023.42 1023.19 1022.96
1024.10 1023.45 1022.90 1022.50 1022.28 1022.23 1022.35 1022.61 1022.97 1023.36 1023.74 1024.04 1024.24 1024.32 1024.28 1024.17 1024.00 1023.84 1023.74 1023.70 1023.76 1023.89 1024.06 1024.25 1024.41 1024.50 1024.52 1024.46 1024.34 1024.18 1024.02 1023.88 1023.79 1023.74 1023.74 1023.75 1023.77 1023.77 1023.73 1023.65 1023.52 1023.34 1023.13
1024.86 1024.27 1023.78 1023.43 1023.26 1023.28 1023.46 1023.77 1024.17 1024.59 1024.99 1025.30 1025.50 1025.58 1025.54 1025.42 1025.26 1025.09 1024.95 1024.87 1024.87 1024.91 1024.99 1025.07 1025.12 1025.12 1025.04 1024.90 1024.71 1024.50 1024.28 1024.09 1023.94 1023.84 1023.78 1023.75 1023.74 1023.72 1023.69 1023.62 1023.51 1023.36 1023.17
1025.68 1025.15 1024.71 1024.41 1024.29 1024.34 1024.55 1024.89 1025.30 1025.73 1026.13 1026.44 1026.65 1026.74 1026.72 1026.62 1026.47 1026.31 1026.17 1026.07 1026.01 1025.98 1025.98 1025.97 1025.92 1025.84 1025.70 1025.50 1025.27 1025.02 1024.76 1024.52 1024.31 1024.14 1023.99 1023.88 1023.78 1023.70 1023.61 1023.50 1023.38 1023.22 1023.04
1026.47 1026.02 1025.64 1025.39 1025.30 1025.36 1025.58 1025.91 1026.31 1026.72 1027.10 1027.41 1027.62 1027.73 1027.74 1027.68 1027.57 1027.44 1027.31 1027.20 1027.11 1027.04 1026.97 1026.89 1026.78 1026.64 1026.46 1026.24 1025.99 1025.72 1025.44 1025.15 1024.87 1024.61 1024.35 1024.12 1023.89 1023.69 1023.49 1023.31 1023.12 1022.93 1022.73
1027.17 1026.82 1026.51 1026.30 1026.23 1026.30 1026.50 1026.80 1027.16 1027.54 1027.89 1028.18 1028.40 1028.53 1028.58 1028.57 1028.51 1028.43 1028.33 1028.22 1028.12 1028.02 1027.91 1027.78 1027.64 1027.47 1027.27 1027.05 1026.80 1026.52 1026.22 1025.89 1025.54 1025.18 1024.80 1024.41 1024.04 1023.68 1023.35 1023.05 1022.77 1022.53 1022.30
1027.75 1027.49 1027.26 1027.10 1027.05 1027.12 1027.30 1027.56 1027.87 1028.20 1028.51 1028.78 1028.99 1029.14 1029.24 1029.28 1029.28 1029.25 1029.19 1029.11 1029.01 1028.89 1028.75 1028.60 1028.43 1028.24 1028.04 1027.82 1027.58 1027.30 1026.99 1026.62 1026.21 1025.74 1025.24 1024.71 1024.17 1023.66 1023.18 1022.75 1022.38 1022.06 1021.78
Thickness
5716 5716 5715 5712 5710 5708 5707 5706 5705 5704 5704 5703 5703 5703 5703 5703 5703 5704 5704 5704 5704 5704 5704 5704 5705 5706 5706 5707 5708 5709 5710 5711 5712 5713 5714 5715 5715 5715 5715 5716 5717 5719 5720
5723 5720 5717 5714 5711 5709 5707 5706 5704 5703 5702 5701 5700 5700 5700 5700 5700 5700 5701 5701 5701 5700 5700 5700 5700 5701 5702 5702 5703 5704 5705 5706 5707 5708 5709 5709 5710 5710 5710 5711 5712 5714 5715
5724 5721 5719 5716 5713 5710 5708 5705 5704 5702 5701 5700 5699 5699 5698 5697 5697 5697 5697 5697 5697 5696 5696 5695 5696 5696 5697 5697 5698 5699 5700 5701 5702 5703 5704 5704 5705 5705 5705 5706 5707 5708 5710
5723 5721 5719 5716 5713 5710 5708 5705 5703 5701 5700 5699 5698 5697 5696 5695 5695 5694 5694 5694 5693 5693 5692 5692 5691 5692 5692 5693 5694 5694 5696 5697 5698 5699 5700 5700 5701 5701 5701 5701 5702 5703 5704
5723 5721 5719 5715 5713 5710 5707 5705 5703 5700 5699 5697 5696 5695 5694 5693 5692 5691 5691 5690 5690 5689 5688 5687 5687 5687 5688 5689 5689 5690 5692 5693 5694 5695 5695 5696 5696 5697 5697 5697 5697 5697 5698
5721 5719 5718 5715 5712 5709 5707 5704 5702 5700 5698 5696 5695 5694 5693 5691 5690 5689 5688 5687 5686 5685 5684 5683 5683 5683 5684 5684 5685 5686 5687 5688 5690 5691 5691 5691 5692 5692 5693 5693 5692 5693 5693
5719 5717 5715 5713 5710 5708 5706 5703 5701 5698 5696 5695 5693 5692 5690 5689 5688 5686 5685 5683 5682 5680 5680 5679 5678 5678 5679 5680 5680 5682 5682 5683 5685 5685 5686 5686 5687 5687 5687 5688 5688 5688 5688
5717 5715 5712 5710 5708 5706 5704 5702 5700 5697 5695 5693 5691 5689 5688 5686 5685 5683 5682 5680 5678 5677 5676 5675 5674 5673 5673 5674 5675 5676 5678 5679 5679 5679 5680 5681 5681 5682 5682 5682 5683 5683 5683
5712 5710 5709 5708 5706 5704 5702 5700 5698 5695 5693 5691 5689 5687 5685 5683 5682 5680 5678 5676 5675 5673 5672 5671 5669 5669 5668 5668 5669 5670 5672 5673 5674 5674 5674 5675 5676 5676 5676 5676 5677 5678 5678
5706 5705 5704 5704 5703 5702 5700 5698 5696 5693 5691 5689 5687 5685 5683 5681 5679 5677 5674 5672 5670 5669 5667 5666 5665 5664 5663 5663 5663 5664 5665 5666 5667 5668 5668 5669 5670 5671 5671 5671 5672 5672 5673
5699 5698 5699 5700 5700 5699 5697 5695 5693 5691 5689 5686 5684 5682 5680 5678 5675 5673 5670 5668 5666 5664 5662 5661 5659 5658 5657 5657 5656 5657 5658 5659 5660 5661 5662 5662 5663 5664 5665 5666 5666 5667 5668
5688 5690 5693 5695 5696 5697 5695 5693 5690 5688 5686 5684 5681 5679 5677 5674 5672 5669 5666 5664 5661 5659 5658 5656 5654 5653 5652 5651 5651 5651 5651 5651 5652 5653 5654 5655 5656 5657 5659 5660 5660 5661 5662
5677 5682 5686 5689 5692 5693 5693 5691 5688 5685 5682 5680 5678 5676 5673 5670 5667 5664 5662 5659 5657 5654 5652 5651 5649 5648 5647 5645 5645 5644 5644 5645 5645 5646 5647 5648 5649 5650 5652 5653 5654 5655 5656
5673 5677 5681 5685 5687 5689 5688 5686 5684 5681 5679 5676 5675 5672 5669 5666 5663 5659 5657 5655 5653 5650 5647 5645 5643 5642 5641 5640 5639 5638 5638 5638 5638 5639 5640 5640 5641 5643 5645 5646 5648 5649 5650
5666 5670 5675 5680 5683 5684 5682 5680 5677 5674 5672 5670 5669 5667 5665 5662 5658 5655 5651 5649 5647 5645 5643 5640 5637 5635 5634 5633 5633 5632 5632 5631 5631 5632 5633 5634 5634 5635 5637 5639 5641 5642 5643
5656 5661 5667 5674 5677 5678 5675 5672 5669 5666 5664 5662 5661 5660 5658 5656 5653 5650 5646 5643 5640 5639 5637 5635 5632 5629 5627 5626 5625 5624 5624 5624 5624 5625 5625 5626 5627 5628 5629 5631 5633 5635 5636
5646 5652 5658 5664 5668 5669 5666 5663 5659 5655 5653 5651 5649 5648 5647 5646 5644 5642 5638 5635 5632 5630 5628 5625 5623 5622 5620 5618 5617 5616 5615 5615 5616 5616 5617 5618 5618 5619 5620 5622 5624 5626 5627
5638 5642 5647 5652 5655 5656 5654 5650 5646 5642 5639 5636 5634 5634 5633 5633 5632 5629 5627 5623 5621 5618 5616 5613 5612 5610 5610 5608 5607 5606 5606 5606 5607 5608 5609 5609 5609 5609 5610 5611 5613 5615 5617
5627 5632 5636 5639 5641 5641 5639 5635 5631 5627 5622 5619 5618 5617 5616 5616 5616 5615 5612 5610 5608 5605 5602 5599 5597 5595 5596 5596 5595 5596 5596 5597 5598 5599 5600 5601 5600 5600 5600 5601 5602 5604 5606
5617 5621 5624 5627 5627 5627 5626 5622 5616 5611 5606 5602 5599 5598 5598 5598 5598 5597 5595 5593 5592 5590 5587 5585 5582 5580 5579 5580 5582 5584 5585 5587 5589 5591 5591 5591 5591 5590 5590 5591 5591 5593 5595
5606 5610 5612 5613 5614 5614 5612 5607 5600 5592 5588 5585 5582 5579 5579 5579 5578 5578 5576 5575 5574 5572 5570 5569 5568 5567 5565 5564 5566 5570 5574 5575 5577 5578 5578 5578 5579 5578 5579 5579 5580 5582 5583
5590 5593 5595 5597 5598 5598 5596 5590 5584 5577 5570 5566 5563 5562 5561 5560 5559 5558 5556 5554 5554 5553 5552 5551 5551 5550 5549 5548 5548 5551 5555 5559 5562 5565 5565 5566 5566 5566 5567 5568 5570 5571 5573
5574 5575 5578 5578 5579 5578 5577 5575 5569 5562 5555 5550 5545 5542 5540 5539 5538 5537 5535 5534 5533 5532 5530 5530 5531 5531 5529 5529 5529 5530 5533 5536 5539 5549 5550 5551 5552 5553 5555 5557 5559 5561 5562
5557 5558 5560 5561 5561 5559 5558 5556 5551 5542 5533 5525 5523 5521 5520 5518 5517 5515 5513 5512 5511 5510 5509 5508 5509 5509 5510 5509 5510 5509 5509 5511 5517 5528 5535 5536 5537 5538 5541 5543 5546 5549 5551
5540 5540 5542 5542 5541 5538 5537 5534 5529 5521 5512 5507 5504 5502 5499 5496 5495 5493 5491 5490 5488 5487 5486 5485 5485 5486 5486 5486 5487 5489 5491 5492 5494 5500 5516 5522 5521 5523 5526 5529 5533 5536 5539
5523 5522 5522 5522 5519 5516 5514 5511 5507 5500 5493 5488 5484 5480 5477 5474 5472 5470 5468 5467 5465 5463 5462 5462 5462 5462 5462 5463 5463 5465 5466 5469 5471 5474 5485 5500 5508 5511 5513 5516 5520 5523 5527